Find Starlink 36859

NORAD ID: 68710 Int'l Des: 2026-081 Owner: SPXS Country: US Constellation: starlink operational
LEOCIRCULAR

Current View

Loading 3D Globe...

About Starlink 36859

Description loading...

Upcoming Passes

Passes for default location (London). Set your location on the main map for personalized predictions.

Altitude History

Loading altitude history...

Two-Line Element Set

1 68710U 26081M 26150.83335647 .00001322 00000-0 48806-4 0 9990
2 68710 53.1591 12.5143 0001037 98.3459 125.6586 15.35394300 6050
Epoch: May 30, 2026 • Age: 8 hours

Current Status

Altitude 473.4 km
Velocity 7.63 km/s
Sub-Earth Point -39.58°S, 21.6°E
Launch Date Apr 14, 2026
Age 0.1 years
Type internet

Technical Details

Classification Payload
Mass 575.00 kg
Dry Mass 530.00 kg
Total Mass 575.00 kg
Length 0.30 m
Diameter 4.10 m
Span 29.00 m
Shape Box + pan
Manufacturer SPXS
Bus Type Starlink V2MO
Phase Status In Orbit
Owner/State SPXS/US

Most Searched